Flight Information

DEPARTURE
LANCASTER, CA
Elevation:
2350
Runways:
6/24 - 7201x150 - ASPH-G
ATIS:
126.3
Ground:
121.7
Tower:
FOX TOWER 118.525
DESTINATION
,
Elevation:
TPA:
1000 (est.)


6771.6 NM73° True-14° Var59° HDG

Flight Plan:
(click to file on line)

1. Type
2. Aircraft Identification
3. Aircraft Type / Special Equipment
4. True Airspeed
kts
5. Departure Airport
(ICAO code)
6. Arriving Airport
(ICAO code)
7. Cruising Altitude
ft
8. Alternate Airport
(ICAO code)
9. Route of Flight
10. Remarks


00:00:00 Departure ATIS: Destination ATIS:

Clearance Limit:
Route:
Altitude: Expect in minutes
Frequency:
Transponder: (7500 Hijack / 7600 Lost Comms / 7700 Emergency)


KWJF 251856Z 27024G34KT 10SM FEW036 06/M03 A2971 RMK AO2 PK WND 28034/1852 SLP066 T00561033
Time: 2021-01-25T18:56:00Z
1611601740
Winds: 270 @ 24 kts
Gusting:34 kts
Visibility: 10.0 sm
Clouds (AGL): FEW 3600
Temperature: 5.6 C
Dew Point: -3.3 C
Pressure: 29.71063 in Hgbr


Notes:

Data extracted from FAA Digital Chart Supplement. Effective: 0901Z Thursday, Dec 31, 2020 to 0901Z Thursday, Jan 28, 2021
Current ATIS data is provided courtisy of PilotEdge.